Location: Passau
(48.5721°N, 13.4363°E)
Time: 01:39:15
(UTC+01:00)

ISS - Pass Details

Date: 03 October 2020
Orbit: 417 x 420 km, 51.6° (Epoch: 27 October)

Event Time Altitude Azimuth Distance (km) Brightness Sun altitude
Rises 21:07:53 0° 286° (WNW) 2,370 1.4 -24.7°
Reaches altitude 10° 21:10:25 10° 266° (W) 1,502 -0.1 -25.1°
Enters shadow 21:12:06 17° 238° (WSW) 1,144 -1.2 -25.4°
